Location: Eaton Estates
(41.3089°N, 82.0057°W)
Time: 02:16:32
(UTC+00:00)

Helios 1A - Pass Details

Date: 17 June 2021
Orbit: 584 x 601 km, 98.2° (Epoch: 23 July)

Event Time Altitude Azimuth Distance (km) Brightness Sun altitude
Exits shadow 06:59:05 55° 264° (W) 714 3.1 -22.0°
Drops below altitude 10° 07:03:09 10° 338° (NNW) 1,938 6.2 -21.7°
Sets 07:05:22 0° 343° (NNW) 2,848 7.2 -21.6°
